EW3804 Weather Reports


Display with metric or nautical units.
time (UTC)temp
F
wind
direction
speed
MPH
gust
MPH
rain 1hr
in
rain 24hr
in
rain mn
in
humidity
%
barometer
mb
20260505083038 70 129 0.0 0.0 0.00 0.00 0.00 89 998.7
20260505081537 70 190 0.0 0.0 0.00 0.00 0.00 88 998.7
20260505080036 70 129 0.0 0.0 0.00 0.00 0.00 88 999.1
20260505074535 70 143 0.0 0.0 0.00 0.00 0.00 88 999.4
20260505073038 71 151 0.0 0.0 0.00 0.00 0.00 87 999.6
20260505071526 71 153 0.0 0.0 0.00 0.00 0.00 87 999.9
20260505070035 71 121 0.0 0.0 0.00 0.00 0.00 87 1000.1
20260505064522 71 151 0.0 0.0 0.00 0.00 0.00 86 1000.2
20260505063022 71 138 0.0 0.0 0.00 0.00 0.00 86 1000.3
20260505061524 71 153 0.0 0.0 0.00 0.00 0.00 86 1000.6
20260505060019 71 146 0.0 0.0 0.00 0.00 0.00 86 1000.4
20260505054518 71 190 0.0 0.0 0.00 0.00 0.00 86 1000.6
20260505053017 72 134 0.0 0.0 0.00 0.00 0.00 85 1000.6
20260505051520 72 141 0.0 0.0 0.00 0.00 0.00 84 1000.6
20260505041517 73 193 0.0 0.0 0.00 0.00 0.00 81 1000.5
20260505040010 73 153 0.0 0.0 0.00 0.00 0.00 80 1000.4
20260505034513 74 151 0.0 0.0 0.00 0.00 0.00 78 1000.4
20260505033008 74 127 0.0 0.0 0.00 0.00 0.00 77 1000.4
20260505031518 74 162 0.0 0.0 0.00 0.00 0.00 76 1000.5
20260505030007 75 142 0.0 0.0 0.00 0.00 0.00 75 1000.4
20260505024506 75 131 0.0 0.0 0.00 0.00 0.00 74 1000.3
20260505023009 75 144 0.0 0.0 0.00 0.00 0.00 74 1000.2
20260505021506 75 153 0.0 0.0 0.00 0.00 0.00 73 1000.0
20260505020005 75 142 0.0 0.0 0.00 0.00 0.00 73 999.9
20260505014504 76 165 0.0 0.0 0.00 0.00 0.00 72 999.7
20260505013003 76 161 0.0 6.0 0.00 0.00 0.00 72 999.6
20260505011503 76 173 0.0 2.0 0.00 0.00 0.00 71 999.7
20260505010002 77 146 0.0 1.0 0.00 0.00 0.00 70 999.9
20260505004601 77 146 0.0 0.0 0.00 0.00 0.00 69 1000.0
20260505003100 78 177 0.0 0.0 0.00 0.00 0.00 68 1000.0
20260505001600 79 173 0.0 0.0 0.00 0.00 0.00 66 999.9
20260505000115 79 152 0.0 0.0 0.00 0.00 0.00 65 1000.0
20260504234558 80 155 0.0 0.0 0.00 0.00 0.00 63 1000.2
20260504233108 81 82 0.0 0.0 0.00 0.00 0.00 62 1000.4
20260504231554 81 146 0.0 0.0 0.00 0.00 0.00 62 1000.4
20260504230054 81 122 0.0 0.0 0.00 0.00 0.00 62 1000.6
20260504224556 81 155 0.0 0.0 0.00 0.00 0.00 64 1000.7
20260504223100 80 136 0.0 0.0 0.00 0.00 0.00 64 1000.8
20260504221546 80 176 0.0 0.0 0.00 0.00 0.00 65 1001.0
20260504220045 80 179 0.0 0.0 0.00 0.00 0.00 62 1001.2
20260504214542 81 160 0.0 0.0 0.00 0.00 0.00 63 1001.2
20260504213052 79 156 0.0 0.0 0.00 0.00 0.00 63 1001.6
20260504211538 80 139 0.0 0.0 0.00 0.00 0.00 62 1002.0
20260504210039 80 132 0.0 0.0 0.00 0.00 0.00 64 1002.2
20260504204543 80 175 0.0 0.0 0.00 0.00 0.00 63 1002.4
20260504203035 80 141 0.0 0.0 0.00 0.00 0.00 62 1002.7
20260504201529 80 197 0.0 0.0 0.00 0.00 0.00 65 1003.0
20260504200028 79 183 0.0 0.0 0.00 0.00 0.00 65 1003.3
20260504194525 79 168 0.0 0.0 0.00 0.00 0.00 63 1003.5
20260504193026 79 183 0.0 0.0 0.00 0.00 0.00 63 1003.8
20260504191524 79 166 0.0 0.0 0.00 0.00 0.00 63 1003.9
20260504190022 79 124 0.0 0.0 0.00 0.00 0.00 62 1004.0
20260504184518 78 162 0.0 0.0 0.00 0.00 0.00 62 1004.3
20260504183016 78 142 0.0 0.0 0.00 0.00 0.00 64 1004.4
20260504181515 78 226 0.0 0.0 0.00 0.00 0.00 62 1004.6
20260504180012 77 154 0.0 0.0 0.00 0.00 0.00 64 1005.0
20260504174508 77 158 0.0 0.0 0.00 0.00 0.00 66 1005.2
20260504173005 77 172 0.0 0.0 0.00 0.00 0.00 66 1005.5
20260504171504 76 158 0.0 0.0 0.00 0.00 0.00 66 1005.6